BAW9026 EDDF-EDDP

Flight info

Callsign BAW9026
Flight time 0h 45m
Altitude 23000
Route SULUS4L SULUS Z12 LASGA/N0390F220 T953 VOCIM/N0385F210 T954 GOXLI GOXLI1V
Aircraft B77W/H-SDE1E3FGHIJ3J4J5J6M1M2P2RWXYZ/LB1D1

Departure

Time 2026-05-06 10:59
Airport Frankfurt Main Airport (EDDF)

Arrival

Time 2026-05-06 11:45
Airport Leipzig/Halle Airport (EDDP)
Time Latitude Longitude Altitude Speed Heading
2026-05-06 10:40 50.03816 8.54482 350 ft 0 kts 160°
2026-05-06 10:42 50.03803 8.54490 360 ft 0 kts 160°
2026-05-06 10:55 50.03792 8.54496 359 ft 8 kts 160°
2026-05-06 10:55 50.03706 8.54498 359 ft 11 kts 224°
2026-05-06 10:56 50.03675 8.54386 359 ft 11 kts 249°
2026-05-06 10:56 50.03647 8.54272 358 ft 11 kts 249°
2026-05-06 10:56 50.03619 8.54157 358 ft 11 kts 249°
2026-05-06 10:56 50.03591 8.54037 359 ft 15 kts 251°
2026-05-06 10:57 50.03528 8.53759 357 ft 33 kts 250°
2026-05-06 10:57 50.03447 8.53423 359 ft 33 kts 249°
2026-05-06 10:57 50.03369 8.53102 355 ft 31 kts 249°
2026-05-06 10:57 50.03311 8.52861 356 ft 7 kts 249°
2026-05-06 10:58 50.03292 8.52785 359 ft 7 kts 249°
2026-05-06 10:58 50.03279 8.52732 358 ft 2 kts 249°
2026-05-06 10:58 50.03238 8.52627 356 ft 18 kts 218°
2026-05-06 10:58 50.03075 8.52605 357 ft 53 kts 180°
2026-05-06 10:59 50.02319 8.52601 362 ft 161 kts 180°
2026-05-06 10:59 50.01047 8.52650 1128 ft 186 kts 179°
2026-05-06 10:59 49.99811 8.52709 2817 ft 172 kts 178°
2026-05-06 10:59 49.98615 8.52782 4400 ft 173 kts 179°
2026-05-06 11:00 49.97391 8.52861 5711 ft 178 kts 178°
2026-05-06 11:00 49.96142 8.52944 6892 ft 181 kts 178°
2026-05-06 11:00 49.94867 8.53027 7946 ft 185 kts 178°
2026-05-06 11:00 49.93582 8.53113 8744 ft 196 kts 178°
2026-05-06 11:01 49.92083 8.53212 9093 ft 232 kts 178°
2026-05-06 11:01 49.90376 8.53326 9463 ft 270 kts 177°
2026-05-06 11:01 49.88464 8.53455 10277 ft 287 kts 177°
2026-05-06 11:01 49.86362 8.53596 10771 ft 320 kts 177°
2026-05-06 11:02 49.84019 8.53762 11253 ft 347 kts 176°
2026-05-06 11:02 49.81647 8.54655 12187 ft 358 kts 155°
2026-05-06 11:02 49.79625 8.56943 13485 ft 365 kts 134°
2026-05-06 11:02 49.78241 8.60269 14680 ft 374 kts 114°
2026-05-06 11:03 49.77690 8.64207 15786 ft 381 kts 96°
2026-05-06 11:03 49.77597 8.68383 16739 ft 392 kts 94°
2026-05-06 11:03 49.77504 8.72641 17803 ft 400 kts 95°
2026-05-06 11:03 49.77385 8.76962 18832 ft 405 kts 95°
2026-05-06 11:04 49.77237 8.81338 19819 ft 411 kts 96°
2026-05-06 11:04 49.77076 8.85789 20743 ft 418 kts 96°
2026-05-06 11:04 49.76909 8.90318 21671 ft 425 kts 96°
2026-05-06 11:04 49.76740 8.94909 22639 ft 431 kts 96°
2026-05-06 11:05 49.76571 8.99534 23751 ft 430 kts 96°
2026-05-06 11:05 49.76402 9.04122 24864 ft 426 kts 96°
2026-05-06 11:05 49.76226 9.08685 25964 ft 423 kts 98°
2026-05-06 11:05 49.75786 9.13173 26618 ft 423 kts 107°
2026-05-06 11:06 49.75034 9.17580 26790 ft 423 kts 109°
2026-05-06 11:06 49.74246 9.21955 26779 ft 422 kts 109°
2026-05-06 11:06 49.73484 9.26328 26782 ft 421 kts 109°
2026-05-06 11:06 49.72750 9.30684 26775 ft 419 kts 108°
2026-05-06 11:07 49.72030 9.35045 26781 ft 418 kts 108°
2026-05-06 11:07 49.71317 9.39411 26784 ft 419 kts 108°
2026-05-06 11:07 49.70606 9.43770 26784 ft 419 kts 108°
2026-05-06 11:07 49.69892 9.48135 26779 ft 419 kts 108°
2026-05-06 11:08 49.69176 9.52500 26776 ft 419 kts 108°
2026-05-06 11:08 49.68457 9.56867 26783 ft 419 kts 108°
2026-05-06 11:08 49.67737 9.61225 26782 ft 420 kts 108°
2026-05-06 11:08 49.67117 9.65618 26780 ft 422 kts 99°
2026-05-06 11:09 49.67276 9.70166 26788 ft 430 kts 79°
2026-05-06 11:09 49.68100 9.74610 26799 ft 433 kts 76°
2026-05-06 11:09 49.68962 9.79074 26790 ft 434 kts 76°
2026-05-06 11:09 49.69794 9.83556 26790 ft 434 kts 77°
2026-05-06 11:10 49.70586 9.87995 26781 ft 433 kts 77°
2026-05-06 11:10 49.71375 9.92480 26777 ft 433 kts 77°
2026-05-06 11:10 49.72510 9.96783 26765 ft 436 kts 60°
2026-05-06 11:10 49.74247 10.00636 26807 ft 439 kts 55°
2026-05-06 11:11 49.76076 10.04443 26792 ft 442 kts 54°
2026-05-06 11:11 49.77914 10.08252 26790 ft 442 kts 55°
2026-05-06 11:11 49.79735 10.12069 26779 ft 441 kts 55°
2026-05-06 11:11 49.81537 10.15902 26789 ft 440 kts 56°
2026-05-06 11:12 49.83324 10.19750 26784 ft 440 kts 56°
2026-05-06 11:12 49.85103 10.23613 26786 ft 440 kts 56°
2026-05-06 11:12 49.86875 10.27480 26796 ft 440 kts 56°
2026-05-06 11:12 49.88646 10.31354 26792 ft 440 kts 56°
2026-05-06 11:13 49.90417 10.35233 26789 ft 440 kts 56°
2026-05-06 11:13 49.92183 10.39104 26791 ft 440 kts 56°
2026-05-06 11:13 49.93954 10.42991 26796 ft 440 kts 56°
2026-05-06 11:13 49.95720 10.46870 26793 ft 440 kts 56°
2026-05-06 11:14 49.97485 10.50753 26784 ft 440 kts 56°
2026-05-06 11:14 49.99248 10.54638 26793 ft 440 kts 56°
2026-05-06 11:14 50.01011 10.58528 26801 ft 440 kts 56°
2026-05-06 11:14 50.02771 10.62418 26802 ft 440 kts 56°
2026-05-06 11:15 50.04536 10.66323 26787 ft 441 kts 56°
2026-05-06 11:15 50.06275 10.70175 26787 ft 441 kts 56°
2026-05-06 11:15 50.08056 10.74053 26786 ft 441 kts 53°
2026-05-06 11:15 50.10040 10.77700 26801 ft 441 kts 48°
2026-05-06 11:16 50.12139 10.81191 26800 ft 442 kts 47°
2026-05-06 11:16 50.14257 10.84671 26784 ft 442 kts 47°
2026-05-06 11:16 50.16371 10.88232 26802 ft 442 kts 48°
2026-05-06 11:16 50.18406 10.91747 26793 ft 442 kts 49°
2026-05-06 11:17 50.20482 10.95368 26791 ft 442 kts 49°
2026-05-06 11:17 50.22528 10.98949 26790 ft 442 kts 49°
2026-05-06 11:17 50.24549 11.02491 26793 ft 442 kts 49°
2026-05-06 11:17 50.26593 11.06076 26787 ft 442 kts 49°
2026-05-06 11:18 50.28641 11.09670 26792 ft 443 kts 49°
2026-05-06 11:18 50.30691 11.13270 26787 ft 443 kts 49°
2026-05-06 11:18 50.32741 11.16874 26792 ft 442 kts 49°
2026-05-06 11:18 50.35017 11.20061 26777 ft 442 kts 31°
2026-05-06 11:19 50.37807 11.22007 26795 ft 441 kts 14°
2026-05-06 11:19 50.40826 11.22697 26781 ft 435 kts 356°
2026-05-06 11:19 50.43836 11.22482 26801 ft 434 kts 353°
2026-05-06 11:19 50.46854 11.22156 26792 ft 434 kts 353°
2026-05-06 11:20 50.49867 11.21842 26783 ft 434 kts 353°
2026-05-06 11:20 50.52888 11.21573 26774 ft 434 kts 354°
2026-05-06 11:20 50.55900 11.21343 26784 ft 434 kts 354°
2026-05-06 11:20 50.58915 11.21126 26783 ft 434 kts 355°
2026-05-06 11:21 50.61938 11.21310 26783 ft 437 kts
2026-05-06 11:21 50.64935 11.22229 26774 ft 440 kts 13°
2026-05-06 11:21 50.67836 11.23801 26751 ft 442 kts 21°
2026-05-06 11:21 50.70653 11.25800 26321 ft 447 kts 23°
2026-05-06 11:22 50.73459 11.27901 25829 ft 445 kts 24°
2026-05-06 11:22 50.76241 11.30008 25355 ft 441 kts 24°
2026-05-06 11:22 50.78997 11.32080 24890 ft 436 kts 24°
2026-05-06 11:22 50.81731 11.34112 24408 ft 432 kts 23°
2026-05-06 11:23 50.84442 11.36109 23956 ft 428 kts 23°
2026-05-06 11:23 50.87131 11.38081 23500 ft 424 kts 23°
2026-05-06 11:23 50.89800 11.40034 22979 ft 421 kts 23°
2026-05-06 11:23 50.92451 11.41976 22468 ft 417 kts 23°
2026-05-06 11:24 50.95075 11.43903 21994 ft 413 kts 23°
2026-05-06 11:24 50.97667 11.45809 21533 ft 409 kts 23°
2026-05-06 11:24 51.00237 11.47701 21086 ft 405 kts 23°
2026-05-06 11:24 51.02780 11.49575 20644 ft 402 kts 23°
2026-05-06 11:25 51.05305 11.51439 20198 ft 399 kts 23°
2026-05-06 11:25 51.07814 11.53292 19752 ft 396 kts 23°
2026-05-06 11:25 51.10216 11.55339 19303 ft 390 kts 36°
2026-05-06 11:25 51.12106 11.58397 18866 ft 388 kts 57°
2026-05-06 11:26 51.13401 11.62110 18455 ft 381 kts 64°
2026-05-06 11:26 51.14592 11.65875 18015 ft 380 kts 64°
2026-05-06 11:26 51.15777 11.69625 17529 ft 379 kts 64°
2026-05-06 11:26 51.16973 11.73367 17064 ft 377 kts 64°
2026-05-06 11:27 51.18151 11.77018 16613 ft 375 kts 64°
2026-05-06 11:27 51.19344 11.80694 16177 ft 372 kts 63°
2026-05-06 11:27 51.20533 11.84350 15753 ft 370 kts 63°
2026-05-06 11:27 51.21713 11.87979 15324 ft 368 kts 63°
2026-05-06 11:28 51.22844 11.91602 14883 ft 361 kts 69°
2026-05-06 11:28 51.23383 11.95444 14457 ft 350 kts 89°
2026-05-06 11:28 51.23496 11.99309 14084 ft 348 kts 89°
2026-05-06 11:28 51.23642 12.03162 13671 ft 347 kts 88°
2026-05-06 11:29 51.23812 12.07000 13210 ft 346 kts 88°
2026-05-06 11:29 51.23995 12.10828 12765 ft 345 kts 88°
2026-05-06 11:29 51.24178 12.14627 12343 ft 343 kts 88°
2026-05-06 11:29 51.24360 12.18413 11934 ft 341 kts 88°
2026-05-06 11:30 51.24538 12.22176 11518 ft 339 kts 88°
2026-05-06 11:30 51.24713 12.25916 11111 ft 337 kts 88°
2026-05-06 11:30 51.24886 12.29629 10715 ft 335 kts 88°
2026-05-06 11:30 51.25057 12.33341 10317 ft 334 kts 88°
2026-05-06 11:31 51.25245 12.36978 10158 ft 322 kts 84°
2026-05-06 11:31 51.25895 12.40286 10009 ft 306 kts 66°
2026-05-06 11:31 51.26775 12.43330 9858 ft 299 kts 66°
2026-05-06 11:31 51.27625 12.46349 9542 ft 298 kts 67°
2026-05-06 11:32 51.28459 12.49374 9170 ft 298 kts 68°
2026-05-06 11:32 51.29284 12.52409 8836 ft 296 kts 68°
2026-05-06 11:32 51.30096 12.55417 8540 ft 294 kts 68°
2026-05-06 11:32 51.30903 12.58414 8236 ft 292 kts 68°
2026-05-06 11:33 51.31446 12.61448 7801 ft 289 kts 84°
2026-05-06 11:33 51.31590 12.64696 7456 ft 288 kts 89°
2026-05-06 11:33 51.31675 12.67874 7196 ft 285 kts 89°
2026-05-06 11:33 51.31772 12.70984 6919 ft 283 kts 89°
2026-05-06 11:34 51.31883 12.74129 6596 ft 283 kts 88°
2026-05-06 11:34 51.32007 12.77253 6318 ft 281 kts 88°
2026-05-06 11:34 51.32134 12.80363 6017 ft 280 kts 88°
2026-05-06 11:34 51.32248 12.83458 5854 ft 275 kts 88°
2026-05-06 11:35 51.32362 12.86442 5787 ft 264 kts 87°
2026-05-06 11:35 51.32800 12.89193 5722 ft 254 kts 60°
2026-05-06 11:35 51.33977 12.91217 5536 ft 249 kts 29°
2026-05-06 11:35 51.35589 12.92027 5229 ft 243 kts 358°
2026-05-06 11:36 51.37196 12.91423 4922 ft 237 kts 327°
2026-05-06 11:36 51.38335 12.89616 4611 ft 230 kts 296°
2026-05-06 11:36 51.38926 12.87263 4302 ft 228 kts 286°
2026-05-06 11:36 51.39394 12.84837 4022 ft 227 kts 285°
2026-05-06 11:37 51.39836 12.82431 3803 ft 223 kts 285°
2026-05-06 11:37 51.40272 12.80031 3437 ft 226 kts 285°
2026-05-06 11:37 51.40698 12.77615 3201 ft 223 kts 284°
2026-05-06 11:37 51.41118 12.75242 3042 ft 217 kts 285°
2026-05-06 11:38 51.41523 12.72956 3003 ft 213 kts 284°
2026-05-06 11:38 51.41936 12.70629 3013 ft 223 kts 284°
2026-05-06 11:38 51.42361 12.68222 3023 ft 224 kts 284°
2026-05-06 11:38 51.42781 12.65841 2987 ft 219 kts 284°
2026-05-06 11:39 51.43028 12.63519 2972 ft 205 kts 272°
2026-05-06 11:39 51.43028 12.61280 2979 ft 197 kts 267°
2026-05-06 11:39 51.42953 12.59149 2978 ft 186 kts 265°
2026-05-06 11:39 51.42863 12.57108 3004 ft 183 kts 265°
2026-05-06 11:40 51.42801 12.55763 3030 ft 184 kts 265°
2026-05-06 11:40 51.42706 12.53710 2996 ft 185 kts 265°
2026-05-06 11:40 51.42611 12.51681 2995 ft 177 kts 265°
2026-05-06 11:40 51.42525 12.49818 2978 ft 160 kts 265°
2026-05-06 11:41 51.42445 12.48068 2996 ft 157 kts 265°
2026-05-06 11:41 51.42333 12.45726 2935 ft 164 kts 265°
2026-05-06 11:41 51.42276 12.44493 2787 ft 163 kts 265°
2026-05-06 11:41 51.42194 12.42704 2563 ft 160 kts 265°
2026-05-06 11:42 51.42112 12.40952 2356 ft 152 kts 265°
2026-05-06 11:42 51.42036 12.39309 2154 ft 146 kts 266°
2026-05-06 11:42 51.41963 12.37703 1981 ft 145 kts 265°
2026-05-06 11:42 51.41886 12.36083 1791 ft 148 kts 265°
2026-05-06 11:43 51.41809 12.34442 1556 ft 147 kts 266°
2026-05-06 11:43 51.41721 12.32824 1342 ft 145 kts 267°
2026-05-06 11:43 51.41654 12.31215 1191 ft 146 kts 267°
2026-05-06 11:44 51.41504 12.27966 824 ft 145 kts 267°
2026-05-06 11:44 51.41421 12.26349 629 ft 146 kts 268°
2026-05-06 11:44 51.41361 12.24742 476 ft 139 kts 268°
2026-05-06 11:44 51.41299 12.23426 475 ft 95 kts 266°
2026-05-06 11:45 51.41230 12.22694 468 ft 38 kts 241°
2026-05-06 11:45 51.41174 12.22541 466 ft 0 kts 238°
2026-05-06 11:45 51.41169 12.22530 466 ft 2 kts 238°
2026-05-06 11:45 51.41158 12.22501 466 ft 0 kts 238°
2026-05-06 11:47 51.41157 12.22497 466 ft 2 kts 238°
2026-05-06 11:47 51.41107 12.22380 464 ft 22 kts 229°
2026-05-06 11:47 51.41092 12.22359 464 ft 1 kts 208°
2026-05-06 11:48 51.41084 12.22361 464 ft 1 kts 172°
2026-05-06 11:48 51.41077 12.22371 464 ft 1 kts 131°
2026-05-06 11:48 51.41077 12.22386 464 ft 1 kts 91°
2026-05-06 11:48 51.41079 12.22408 464 ft 3 kts 83°
2026-05-06 11:49 51.41082 12.22446 464 ft 4 kts 83°
2026-05-06 11:49 51.41091 12.22612 466 ft 19 kts 86°
2026-05-06 11:49 51.41100 12.22827 470 ft 19 kts 86°
2026-05-06 11:49 51.41110 12.23042 474 ft 19 kts 85°
2026-05-06 11:50 51.41121 12.23256 474 ft 19 kts 85°
2026-05-06 11:50 51.41131 12.23471 480 ft 19 kts 85°
2026-05-06 11:50 51.41143 12.23696 476 ft 21 kts 85°
2026-05-06 11:50 51.41154 12.23935 477 ft 22 kts 85°
2026-05-06 11:51 51.41166 12.24160 474 ft 21 kts 85°
2026-05-06 11:51 51.41173 12.24309 471 ft 4 kts 87°
2026-05-06 11:51 51.41192 12.24383 473 ft 18 kts 44°
2026-05-06 11:51 51.41355 12.24477 476 ft 20 kts 15°
2026-05-06 11:52 51.41492 12.24532 484 ft 20 kts 12°
2026-05-06 11:52 51.41633 12.24583 476 ft 21 kts 13°
2026-05-06 11:52 51.41775 12.24637 479 ft 21 kts 14°
2026-05-06 11:52 51.41929 12.24700 487 ft 31 kts 14°
2026-05-06 11:53 51.42140 12.24780 490 ft 29 kts 13°
2026-05-06 11:53 51.42345 12.24859 480 ft 32 kts 14°
2026-05-06 11:53 51.42536 12.24938 468 ft 30 kts 14°
2026-05-06 11:53 51.42703 12.25004 464 ft 21 kts 13°
2026-05-06 11:54 51.42865 12.25066 455 ft 26 kts 14°
2026-05-06 11:54 51.42963 12.25003 452 ft 16 kts 289°
2026-05-06 11:54 51.42961 12.24769 450 ft 30 kts 265°
2026-05-06 11:54 51.42947 12.24447 448 ft 22 kts 265°
2026-05-06 11:55 51.42934 12.24152 447 ft 26 kts 266°
2026-05-06 11:55 51.42921 12.23895 445 ft 23 kts 265°
2026-05-06 11:55 51.42909 12.23641 441 ft 23 kts 267°
2026-05-06 11:55 51.42862 12.23456 435 ft 19 kts 198°
2026-05-06 11:56 51.42709 12.23459 428 ft 13 kts 202°
2026-05-06 11:56 51.42682 12.23369 429 ft 18 kts 260°
2026-05-06 11:56 51.42658 12.23284 425 ft 5 kts 202°
2026-05-06 11:56 51.42603 12.23278 429 ft 7 kts 178°
2026-05-06 11:57 51.42589 12.23279 436 ft 2 kts 177°
2026-05-06 11:57 51.42586 12.23279 438 ft 0 kts 177°